FW6626 Weather Reports


Display with metric or nautical units.
time (UTC)temp
F
wind
direction
speed
MPH
gust
MPH
rain 1hr
in
rain 24hr
in
rain mn
in
humidity
%
barometer
mb
20260502211550 66 254 9.0 17.0 0.00 0.00 0.00 78 1013.3
20260502210050 66 311 11.0 16.0 0.00 0.00 0.00 79 1013.3
20260502204548 66 236 9.0 16.0 0.00 0.00 0.00 79 1013.3
20260502203115 66 240 8.0 17.0 0.00 0.00 0.00 79 1013.4
20260502201604 66 254 7.0 13.0 0.00 0.00 0.00 79 1013.3
20260502200059 65 237 8.0 16.0 0.00 0.00 0.00 80 1013.5
20260502194555 65 265 9.0 15.0 0.00 0.00 0.00 80 1013.8
20260502193109 67 256 6.0 14.0 0.00 0.00 0.00 79 1013.8
20260502191557 65 263 6.0 15.0 0.00 0.00 0.00 81 1014.1
20260502190052 66 360 10.0 15.0 0.00 0.00 0.00 80 1014.4
20260502184557 67 262 7.0 12.0 0.00 0.00 0.00 78 1014.4
20260502183055 65 249 5.0 11.0 0.00 0.00 0.00 79 1014.6
20260502181551 66 261 6.0 10.0 0.00 0.00 0.00 79 1014.8
20260502163100 63 0 0.0 4.0 0.00 0.00 0.00 81 1015.3
20260502161555 63 289 1.0 6.0 0.00 0.00 0.00 81 1015.0
20260502151609 62 0 0.0 3.0 0.00 0.00 0.00 83 1015.0
20260502123050 62 154 1.0 2.0 0.00 0.00 0.00 84 1013.9
20260502121553 62 0 0.0 2.0 0.00 0.00 0.00 83 1013.9
20260502114558 61 154 1.0 3.0 0.00 0.00 0.00 83 1013.8
20260502113104 61 154 2.0 5.0 0.00 0.00 0.00 83 1013.7
20260502111557 62 155 1.0 5.0 0.00 0.00 0.00 83 1013.7
20260502110053 61 157 1.0 6.0 0.00 0.00 0.00 83 1013.8
20260502104602 61 169 1.0 4.0 0.00 0.00 0.00 83 1013.7
20260502103054 62 172 2.0 5.0 0.00 0.00 0.00 83 1013.6
20260502101605 62 179 2.0 4.0 0.00 0.00 0.00 83 1013.6
20260502070111 62 0 0.0 2.0 0.00 0.00 0.00 83 1014.4
20260502064556 62 107 0.0 3.0 0.00 0.00 0.00 83 1014.5
20260502063103 62 0 1.0 3.0 0.00 0.00 0.00 82 1014.4
20260502061550 62 134 2.0 4.0 0.00 0.00 0.00 82 1014.5
20260502060056 62 167 1.0 4.0 0.00 0.00 0.00 82 1014.6
20260502054603 62 0 0.0 4.0 0.00 0.00 0.00 82 1014.5
20260502053055 62 254 1.0 3.0 0.00 0.00 0.00 82 1014.5
20260502051553 62 256 0.0 2.0 0.00 0.00 0.00 82 1014.6
20260502050054 62 0 0.0 2.0 0.00 0.00 0.00 82 1014.5
20260502044550 62 0 0.0 3.0 0.00 0.00 0.00 82 1014.4
20260502043109 63 284 0.0 4.0 0.00 0.00 0.00 82 1014.4
20260502041612 63 296 1.0 5.0 0.00 0.00 0.00 81 1014.4
20260502040057 63 280 2.0 7.0 0.00 0.00 0.00 82 1014.1
20260502034550 63 242 1.0 4.0 0.00 0.00 0.00 82 1013.9
20260502033053 63 0 0.0 4.0 0.00 0.00 0.00 81 1013.6
20260502031551 63 0 2.0 6.0 0.00 0.00 0.00 81 1013.5
20260502030109 63 234 2.0 5.0 0.00 0.00 0.00 81 1013.7
20260502024600 63 249 3.0 5.0 0.00 0.00 0.00 81 1013.5
20260502023120 63 263 4.0 8.0 0.00 0.00 0.00 81 1013.4
20260502021549 63 252 3.0 8.0 0.00 0.00 0.00 80 1013.3
20260502020052 63 258 4.0 10.0 0.00 0.00 0.00 80 1013.3
20260502014603 64 263 5.0 10.0 0.00 0.00 0.00 79 1013.1
20260502013100 64 267 3.0 9.0 0.00 0.00 0.00 78 1013.0
20260502011616 65 279 5.0 11.0 0.00 0.00 0.00 77 1012.9
20260502010057 66 268 6.0 11.0 0.00 0.00 0.00 75 1012.7
20260502004554 66 247 6.0 11.0 0.00 0.00 0.00 75 1012.7
20260502003055 67 284 4.0 9.0 0.00 0.00 0.00 74 1012.5
20260502001606 68 294 5.0 11.0 0.00 0.00 0.00 72 1012.5
20260502000100 67 240 7.0 13.0 0.00 0.00 0.00 73 1012.5
20260501234556 68 360 5.0 12.0 0.00 0.00 0.00 71 1012.6
20260501233118 68 262 3.0 12.0 0.00 0.00 0.00 71 1012.5
20260501231626 68 267 5.0 15.0 0.00 0.00 0.00 71 1012.5
20260501230119 68 244 6.0 13.0 0.00 0.00 0.00 70 1012.7
20260501224610 69 234 4.0 11.0 0.00 0.00 0.00 70 1012.9
20260501223102 68 224 6.0 13.0 0.00 0.00 0.00 71 1013.0
20260501221604 69 269 7.0 12.0 0.00 0.00 0.00 70 1013.2
20260501220104 68 238 6.0 13.0 0.00 0.00 0.00 71 1013.4
20260501214551 69 216 5.0 13.0 0.00 0.00 0.00 70 1013.4
20260501213053 68 235 6.0 14.0 0.00 0.00 0.00 72 1013.7